• In Hungary
  • List of Countries
  • For 7 days
  • Water Temperature
  • Satellite Maps
  • Weather Map
  • News
  • Weather Widgets
  • user-avatar
    Login

    Hourly Weather Slecin

    Today, 17 January, Wednesday

    Time Temperature Precipitation Wind Pressure Humidity
    00:00 -2°C° 0.4 mm 7 mps 720 mmHg 80%
    01:00 -2°C° 0 mm 8 mps 720 mmHg 80%
    02:00 -2°C° 0 mm 7 mps 720 mmHg 81%
    03:00 -3°C° 0 mm 6 mps 720 mmHg 83%
    04:00 -2°C° 0 mm 5 mps 720 mmHg 84%
    05:00 -2°C° 0 mm 5 mps 720 mmHg 85%
    06:00 -4°C° 0 mm 5 mps 720 mmHg 86%
    07:00 -3°C° 0 mm 4 mps 720 mmHg 88%
    08:00 -2°C° 0 mm 4 mps 720 mmHg 85%
    09:00 -2°C° 0 mm 4 mps 720 mmHg 83%
    10:00 -1°C° 0 mm 4 mps 720 mmHg 80%
    11:00 -1°C° 0 mm 4 mps 720 mmHg 78%
    12:00 -1°C° 0 mm 4 mps 720 mmHg 76%
    13:00 0°C° 0 mm 4 mps 720 mmHg 73%
    14:00 0°C° 0 mm 3 mps 721 mmHg 77%
    15:00 -1°C° 0 mm 3 mps 721 mmHg 80%
    16:00 -1°C° 0 mm 3 mps 721 mmHg 83%
    17:00 -1°C° 0.1 mm 3 mps 722 mmHg 84%
    18:00 -2°C° 0.1 mm 4 mps 722 mmHg 85%
    19:00 -2°C° 0.1 mm 4 mps 722 mmHg 86%
    20:00 -2°C° 0.1 mm 5 mps 723 mmHg 86%
    21:00 -2°C° 0.1 mm 5 mps 723 mmHg 86%
    22:00 -3°C° 0.1 mm 6 mps 724 mmHg 85%
    23:00 -3°C° 0.1 mm 6 mps 724 mmHg 85%

    Tomorrow, 18 January, Thursday

    Time Temperature Precipitation Wind Pressure Humidity
    00:00 -2°C° 0.1 mm 5 mps 725 mmHg 85%
    01:00 -2°C° 0.1 mm 5 mps 725 mmHg 85%
    02:00 -2°C° 0.1 mm 5 mps 725 mmHg 84%
    03:00 -4°C° 0.1 mm 5 mps 726 mmHg 84%
    04:00 -4°C° 0.1 mm 6 mps 727 mmHg 83%
    05:00 -4°C° 0 mm 5 mps 727 mmHg 84%
    06:00 -4°C° 0 mm 5 mps 728 mmHg 84%
    07:00 -2°C° 0 mm 5 mps 728 mmHg 84%
    08:00 -2°C° 0 mm 5 mps 729 mmHg 82%
    09:00 -2°C° 0 mm 5 mps 729 mmHg 80%
    10:00 -2°C° 0 mm 5 mps 729 mmHg 78%
    11:00 -1°C° 0 mm 5 mps 729 mmHg 75%
    12:00 -1°C° 0 mm 5 mps 729 mmHg 72%
    13:00 0°C° 0 mm 5 mps 728 mmHg 70%
    14:00 -1°C° 0 mm 5 mps 727 mmHg 71%
    15:00 -1°C° 0 mm 5 mps 727 mmHg 72%
    16:00 -2°C° 0 mm 5 mps 726 mmHg 73%
    17:00 -2°C° 0.4 mm 6 mps 724 mmHg 73%
    18:00 -2°C° 0.4 mm 7 mps 723 mmHg 74%
    19:00 -2°C° 0.4 mm 8 mps 722 mmHg 75%
    20:00 -1°C° 0.9 mm 8 mps 721 mmHg 77%
    21:00 -1°C° 0.9 mm 8 mps 721 mmHg 79%
    22:00 0°C° 0.9 mm 8 mps 720 mmHg 81%
    23:00 0°C° 0.2 mm 8 mps 720 mmHg 78%

    Day after tomorrow, 19 January, Friday

    Time Temperature Precipitation Wind Pressure Humidity
    00:00 0°C° 0.2 mm 8 mps 719 mmHg 74%
    01:00 -1°C° 0.2 mm 9 mps 719 mmHg 71%
    02:00 -1°C° 0.1 mm 9 mps 719 mmHg 72%
    03:00 -3°C° 0.1 mm 9 mps 719 mmHg 72%
    04:00 -3°C° 0.1 mm 10 mps 719 mmHg 73%
    05:00 -3°C° 0.2 mm 10 mps 720 mmHg 75%
    06:00 -3°C° 0.2 mm 10 mps 721 mmHg 77%
    07:00 -4°C° 0.2 mm 10 mps 722 mmHg 79%
    08:00 -4°C° 0.2 mm 10 mps 723 mmHg 78%
    09:00 -3°C° 0.2 mm 10 mps 724 mmHg 78%
    10:00 -3°C° 0.2 mm 9 mps 725 mmHg 78%
    11:00 -3°C° 0.1 mm 9 mps 726 mmHg 77%
    12:00 -3°C° 0.1 mm 9 mps 727 mmHg 76%
    13:00 -2°C° 0.1 mm 8 mps 728 mmHg 76%
    14:00 -2°C° 0 mm 7 mps 728 mmHg 77%
    15:00 -3°C° 0 mm 6 mps 729 mmHg 79%
    16:00 -2°C° 0 mm 5 mps 729 mmHg 80%
    17:00 -2°C° 0 mm 4 mps 730 mmHg 82%
    18:00 -3°C° 0 mm 4 mps 730 mmHg 84%
    19:00 -2°C° 0 mm 3 mps 730 mmHg 86%
    20:00 -2°C° 0.1 mm 3 mps 731 mmHg 87%
    21:00 -3°C° 0.1 mm 4 mps 731 mmHg 87%
    22:00 -2°C° 0.1 mm 4 mps 731 mmHg 87%
    23:00 -3°C° 0.1 mm 4 mps 731 mmHg 87%

    20 January, Saturday

    Time Temperature Precipitation Wind Pressure Humidity
    00:00 -3°C° 0.1 mm 4 mps 731 mmHg 88%
    01:00 -3°C° 0.1 mm 4 mps 731 mmHg 88%
    02:00 -3°C° 0 mm 4 mps 731 mmHg 88%
    03:00 -3°C° 0 mm 4 mps 731 mmHg 89%
    04:00 -4°C° 0 mm 4 mps 731 mmHg 89%
    05:00 -4°C° 0 mm 3 mps 731 mmHg 89%
    06:00 -4°C° 0 mm 3 mps 731 mmHg 89%
    07:00 -4°C° 0 mm 3 mps 731 mmHg 89%
    08:00 -4°C° 0 mm 3 mps 731 mmHg 86%
    09:00 -2°C° 0 mm 3 mps 731 mmHg 84%
    10:00 -2°C° 0 mm 3 mps 731 mmHg 81%
    11:00 -1°C° 0 mm 3 mps 731 mmHg 81%
    12:00 -1°C° 0 mm 2 mps 730 mmHg 80%
    13:00 +1°C° 0 mm 2 mps 730 mmHg 80%
    14:00 -1°C° 0.8 mm 2 mps 730 mmHg 85%
    15:00 -1°C° 0.8 mm 2 mps 730 mmHg 89%
    16:00 -2°C° 0.8 mm 2 mps 730 mmHg 93%
    17:00 -2°C° 0.7 mm 2 mps 730 mmHg 94%
    18:00 -2°C° 0.7 mm 3 mps 731 mmHg 94%
    19:00 -2°C° 0.7 mm 3 mps 731 mmHg 94%
    20:00 -2°C° 0.2 mm 3 mps 731 mmHg 93%
    21:00 -4°C° 0.2 mm 3 mps 731 mmHg 93%
    22:00 -4°C° 0.2 mm 3 mps 732 mmHg 92%
    23:00 -5°C° 0 mm 3 mps 732 mmHg 93%

    21 January, Sunday

    Time Temperature Precipitation Wind Pressure Humidity
    00:00 -5°C° 0 mm 3 mps 732 mmHg 93%
    01:00 -5°C° 0 mm 2 mps 732 mmHg 94%
    02:00 -4°C° 0.1 mm 2 mps 732 mmHg 94%
    03:00 -5°C° 0.1 mm 3 mps 733 mmHg 95%
    04:00 -5°C° 0.1 mm 3 mps 733 mmHg 95%
    05:00 -4°C° 0.2 mm 2 mps 733 mmHg 94%
    06:00 -3°C° 0.2 mm 2 mps 734 mmHg 94%
    07:00 -3°C° 0.2 mm 2 mps 735 mmHg 94%
    08:00 -4°C° 0.1 mm 3 mps 735 mmHg 93%
    09:00 -2°C° 0.1 mm 3 mps 736 mmHg 92%
    10:00 -2°C° 0.1 mm 3 mps 736 mmHg 91%
    11:00 -2°C° 0.1 mm 3 mps 736 mmHg 91%
    12:00 -2°C° 0.1 mm 3 mps 736 mmHg 90%
    13:00 -2°C° 0.1 mm 4 mps 737 mmHg 89%
    14:00 -2°C° 0.1 mm 3 mps 737 mmHg 89%
    15:00 -2°C° 0.1 mm 3 mps 737 mmHg 89%
    16:00 -2°C° 0.1 mm 3 mps 737 mmHg 90%
    17:00 -3°C° 0 mm 2 mps 738 mmHg 90%
    18:00 -3°C° 0 mm 2 mps 738 mmHg 91%
    19:00 -4°C° 0 mm 2 mps 739 mmHg 92%
    20:00 -4°C° 0 mm 2 mps 739 mmHg 92%
    21:00 -4°C° 0 mm 2 mps 739 mmHg 92%
    22:00 -3°C° 0 mm 2 mps 739 mmHg 92%
    23:00 -4°C° 0 mm 2 mps 739 mmHg 92%

    22 January, Monday

    Time Temperature Precipitation Wind Pressure Humidity
    00:00 -4°C° 0 mm 2 mps 739 mmHg 92%
    01:00 -4°C° 0 mm 2 mps 739 mmHg 91%
    02:00 -4°C° 0 mm 2 mps 739 mmHg 92%
    03:00 -4°C° 0 mm 2 mps 739 mmHg 92%
    04:00 -5°C° 0 mm 2 mps 739 mmHg 92%
    05:00 -5°C° 0 mm 2 mps 739 mmHg 93%
    06:00 -5°C° 0 mm 2 mps 740 mmHg 93%
    07:00 -5°C° 0 mm 2 mps 740 mmHg 93%
    08:00 -5°C° 0 mm 2 mps 740 mmHg 91%
    09:00 -4°C° 0 mm 2 mps 740 mmHg 89%
    10:00 -4°C° 0 mm 2 mps 740 mmHg 88%
    11:00 -3°C° 0 mm 2 mps 740 mmHg 86%
    12:00 -2°C° 0 mm 2 mps 740 mmHg 84%
    13:00 -2°C° 0 mm 2 mps 740 mmHg 82%
    14:00 -2°C° 0 mm 2 mps 740 mmHg 84%
    15:00 -3°C° 0 mm 2 mps 740 mmHg 85%
    16:00 -4°C° 0 mm 2 mps 740 mmHg 87%
    17:00 -4°C° 0 mm 2 mps 740 mmHg 86%
    18:00 -5°C° 0 mm 2 mps 740 mmHg 85%
    19:00 -5°C° 0 mm 2 mps 741 mmHg 85%
    20:00 -5°C° 0 mm 2 mps 741 mmHg 84%
    21:00 -5°C° 0 mm 2 mps 741 mmHg 84%
    22:00 -6°C° 0 mm 2 mps 741 mmHg 83%
    23:00 -6°C° 0 mm 2 mps 741 mmHg 82%
    Show more